Location: Kermapucano
(48.0667°N, 3.3000°W)
Time: 20:36:42
(UTC+00:00)

CZ-2C R/B - Pass Details

Date: 29 November 2020
Orbit: 785 x 870 km, 98.2° (Epoch: 27 January)

Event Time Altitude Azimuth Distance (km) Brightness Sun altitude
Rises 06:28:27 0° 159° (SSE) 3,408 6.5 -11.6°
Reaches altitude 10° 06:30:50 10° 158° (SSE) 2,466 5.7 -11.2°
Maximum altitude 06:36:18 77° 73° (ENE) 861 2.9 -10.4°
Drops below altitude 10° 06:41:41 10° 349° (N) 2,427 4.8 -9.5°
Sets 06:44:01 0° 348° (NNW) 3,351 5.5 -9.2°
